TimeEDT,TemperatureF,Dew PointF,Humidity,Sea Level PressureIn,VisibilityMPH,Wind Direction,Wind SpeedMPH,Gust SpeedMPH,PrecipitationIn,Events,Conditions,WindDirDegrees,DateUTC
12:13 AM,39.4,27.3,62,30.27,10.0,NW,6.9,-,N/A,,Overcast,320,2012-10-27 04:13:00
12:53 AM,38.8,27.0,62,30.27,10.0,NNW,8.1,-,N/A,,Overcast,340,2012-10-27 04:53:00
1:13 AM,38.8,26.4,61,30.27,10.0,North,6.9,-,N/A,,Overcast,350,2012-10-27 05:13:00
1:34 AM,39.0,26.4,61,30.27,10.0,NNW,4.6,-,N/A,,Overcast,340,2012-10-27 05:34:00
1:53 AM,39.2,26.4,60,30.27,10.0,NNW,4.6,-,N/A,,Overcast,330,2012-10-27 05:53:00
2:14 AM,38.8,26.6,61,30.27,10.0,NW,4.6,-,N/A,,Overcast,320,2012-10-27 06:14:00
2:34 AM,38.3,26.6,63,30.27,10.0,NNW,6.9,-,N/A,,Overcast,330,2012-10-27 06:34:00
2:53 AM,37.9,26.2,63,30.26,10.0,NW,5.8,-,N/A,,Mostly Cloudy,320,2012-10-27 06:53:00
3:14 AM,37.0,25.7,64,30.26,10.0,NW,5.8,-,N/A,,Scattered Clouds,310,2012-10-27 07:14:00
3:34 AM,36.7,25.7,64,30.26,10.0,NW,5.8,-,N/A,,Clear,310,2012-10-27 07:34:00
3:53 AM,36.9,26.6,66,30.26,10.0,NW,6.9,-,N/A,,Clear,310,2012-10-27 07:53:00
4:13 AM,36.3,25.2,64,30.25,10.0,NW,5.8,-,N/A,,Clear,320,2012-10-27 08:13:00
4:34 AM,36.5,24.4,62,30.25,10.0,NNW,5.8,-,N/A,,Clear,330,2012-10-27 08:34:00
4:53 AM,36.5,23.9,60,30.25,10.0,NNW,4.6,-,N/A,,Clear,330,2012-10-27 08:53:00
5:14 AM,36.5,23.5,59,30.26,10.0,NNW,5.8,-,N/A,,Clear,330,2012-10-27 09:14:00
5:34 AM,36.0,23.4,60,30.26,10.0,NNW,4.6,-,N/A,,Clear,330,2012-10-27 09:34:00
5:53 AM,35.8,23.5,61,30.27,10.0,NW,4.6,-,N/A,,Clear,310,2012-10-27 09:53:00
6:14 AM,36.3,23.5,60,30.27,10.0,NW,5.8,-,N/A,,Clear,310,2012-10-27 10:14:00
6:34 AM,35.8,23.4,61,30.27,10.0,NW,4.6,-,N/A,,Clear,320,2012-10-27 10:34:00
7:14 AM,32.9,24.8,72,30.27,10.0,NNW,4.6,-,N/A,,Clear,330,2012-10-27 11:14:00
7:34 AM,34.2,24.4,68,30.28,10.0,NNW,4.6,-,N/A,,Clear,330,2012-10-27 11:34:00
7:53 AM,32.9,24.8,72,30.28,10.0,NNW,5.8,-,N/A,,Clear,330,2012-10-27 11:53:00
8:14 AM,33.6,25.2,71,30.28,10.0,NNW,4.6,-,N/A,,Clear,330,2012-10-27 12:14:00
8:34 AM,35.2,25.3,67,30.29,10.0,NNW,5.8,-,N/A,,Clear,330,2012-10-27 12:34:00
8:53 AM,33.3,25.9,74,30.29,10.0,NNW,4.6,-,N/A,,Clear,330,2012-10-27 12:53:00
9:14 AM,34.9,26.6,72,30.30,10.0,NNW,4.6,-,N/A,,Clear,330,2012-10-27 13:14:00
9:34 AM,37.4,27.3,67,30.29,10.0,Calm,Calm,-,N/A,,Clear,0,2012-10-27 13:34:00
9:53 AM,39.2,27.1,62,30.29,10.0,NNW,4.6,-,N/A,,Clear,340,2012-10-27 13:53:00
10:14 AM,40.5,26.4,57,30.29,10.0,North,3.5,-,N/A,,Clear,350,2012-10-27 14:14:00
10:53 AM,41.9,25.0,51,30.29,10.0,NNW,8.1,-,N/A,,Overcast,330,2012-10-27 14:53:00
11:14 AM,41.7,25.0,52,30.29,10.0,NW,9.2,-,N/A,,Overcast,320,2012-10-27 15:14:00
11:33 AM,41.2,23.5,50,30.28,10.0,NNW,6.9,-,N/A,,Overcast,340,2012-10-27 15:33:00
11:53 AM,41.4,23.9,50,30.28,10.0,NNW,5.8,-,N/A,,Overcast,330,2012-10-27 15:53:00
12:14 PM,41.7,23.0,47,30.28,10.0,Calm,Calm,-,N/A,,Scattered Clouds,0,2012-10-27 16:14:00
12:33 PM,41.4,22.6,47,30.27,10.0,Calm,Calm,-,N/A,,Mostly Cloudy,0,2012-10-27 16:33:00
12:53 PM,41.7,22.5,46,30.27,10.0,Calm,Calm,-,N/A,,Overcast,0,2012-10-27 16:53:00
1:14 PM,41.7,22.3,46,30.26,10.0,Calm,Calm,-,N/A,,Overcast,0,2012-10-27 17:14:00
1:33 PM,41.5,23.2,48,30.26,10.0,West,3.5,-,N/A,,Overcast,280,2012-10-27 17:33:00
1:53 PM,41.0,23.7,50,30.25,10.0,WSW,4.6,-,N/A,,Overcast,240,2012-10-27 17:53:00
2:14 PM,41.4,24.3,51,30.25,10.0,Calm,Calm,-,N/A,,Overcast,0,2012-10-27 18:14:00
2:33 PM,41.7,24.3,50,30.25,10.0,Calm,Calm,-,N/A,,Overcast,0,2012-10-27 18:33:00
2:53 PM,41.9,23.9,49,30.25,10.0,West,4.6,-,N/A,,Overcast,280,2012-10-27 18:53:00
3:14 PM,45.0,22.3,41,30.24,10.0,WNW,10.4,-,N/A,,Overcast,290,2012-10-27 19:14:00
3:33 PM,43.7,22.8,44,30.24,10.0,NW,6.9,-,N/A,,Mostly Cloudy,310,2012-10-27 19:33:00
3:54 PM,43.2,23.0,45,30.24,10.0,WNW,9.2,-,N/A,,Overcast,290,2012-10-27 19:54:00
4:14 PM,43.0,21.2,42,30.24,10.0,West,8.1,-,N/A,,Overcast,280,2012-10-27 20:14:00
4:33 PM,42.8,23.4,46,30.25,10.0,West,9.2,-,N/A,,Overcast,270,2012-10-27 20:33:00
4:54 PM,42.6,23.4,47,30.25,10.0,West,9.2,-,N/A,,Overcast,280,2012-10-27 20:54:00
5:14 PM,42.1,23.5,48,30.25,10.0,West,11.5,-,N/A,,Overcast,270,2012-10-27 21:14:00
5:33 PM,41.5,23.9,50,30.25,10.0,West,11.5,-,N/A,,Overcast,280,2012-10-27 21:33:00
5:54 PM,41.4,23.7,50,30.26,10.0,West,9.2,-,N/A,,Overcast,280,2012-10-27 21:54:00
6:14 PM,41.0,21.7,46,30.26,10.0,WNW,10.4,-,N/A,,Overcast,300,2012-10-27 22:14:00
6:33 PM,41.0,20.1,43,30.26,10.0,WNW,8.1,-,N/A,,Overcast,290,2012-10-27 22:33:00
6:54 PM,40.3,20.3,45,30.27,10.0,WNW,9.2,-,N/A,,Overcast,300,2012-10-27 22:54:00
7:14 PM,39.4,20.7,47,30.27,10.0,NW,4.6,-,N/A,,Mostly Cloudy,310,2012-10-27 23:14:00
7:33 PM,38.7,21.7,51,30.27,10.0,NNW,10.4,-,N/A,,Scattered Clouds,330,2012-10-27 23:33:00
7:54 PM,37.4,29.8,74,30.27,10.0,North,10.4,16.1,N/A,,Clear,360,2012-10-27 23:54:00
8:14 PM,37.4,30.9,77,30.27,10.0,North,10.4,-,N/A,,Clear,350,2012-10-28 00:14:00
8:33 PM,37.2,30.0,75,30.28,10.0,North,8.1,17.3,N/A,,Scattered Clouds,360,2012-10-28 00:33:00
8:54 PM,37.4,29.7,74,30.27,10.0,North,11.5,18.4,N/A,,Mostly Cloudy,360,2012-10-28 00:54:00
9:13 PM,37.4,28.9,71,30.27,10.0,North,8.1,16.1,N/A,,Mostly Cloudy,360,2012-10-28 01:13:00
9:34 PM,37.2,28.4,70,30.27,10.0,North,9.2,16.1,N/A,,Mostly Cloudy,350,2012-10-28 01:34:00
9:54 PM,37.4,28.0,69,30.28,10.0,North,9.2,16.1,N/A,,Overcast,350,2012-10-28 01:54:00
10:13 PM,37.0,28.0,70,30.28,10.0,North,10.4,18.4,N/A,,Scattered Clouds,360,2012-10-28 02:13:00
10:54 PM,36.9,26.6,66,30.29,10.0,North,11.5,17.3,N/A,,Clear,350,2012-10-28 02:54:00
11:13 PM,35.8,27.1,71,30.29,10.0,North,11.5,18.4,N/A,,Scattered Clouds,350,2012-10-28 03:13:00
11:34 PM,35.6,29.1,77,30.30,10.0,North,10.4,-,N/A,,Mostly Cloudy,350,2012-10-28 03:34:00
11:54 PM,36.0,29.8,78,30.30,10.0,North,9.2,-,N/A,,Overcast,360,2012-10-28 03:54:00